Showing default

HAWK-8C, 59449

Orbit data source: Space-Track

HAWK-8C, 59449 is a payload satellite owned by HawkEye 360 (US) in LEO that was launched on Sun, 07 Apr 2024 UTC via an FALCON 9 launch vehicle from the Air Force Eastern Test Range (AFETR). Payload-class satellites include a variety of spacecraft equipped with specific instruments for various scientific and technological missions. These include communications satellites like Starlink; space stations such as the ISS; scientific satellites like the Hubble; Earth observation satellites from companies like Planet Labs, Umbra, and HawkEye 360; GPS; miniature CubeSats for education and research; and military/defense satellites.

Loading next visibility...
Identifier
59449, 2024-066H
Orbit
LEO
Country
Flag of USUS
Related business
Manufacturer
UTIAS-SFL
Mission
Operational Commercial Sigint
Bus & Motor
HAWK2G, Unknown motor
Mass
31 kg wet, 30 kg dry
Launch date (UTC)
2024-04-07 (2 years ago)
Launch vehicle
FALCON 9
Launch site
Air Force Eastern Test Range (AFETR)
Object type
Payload
Rocket body
Debris
Shape & HBR
Box + 2 Pan, 1.0 m
Radar Cross Section
0.240 m², Medium (>0.1 m² and < 1m²)

Expand to show TLE details & history
Last TLE update: 19 hours ago

TLE from 19 hours ago
0 HAWK-8C
1 59449U 24066H   25293.79619762  .00004985  00000-0  43588-3 0  9994
2 59449  45.6063  74.0137 0004393 232.4016 127.6466 14.97914726 83919
Epoch: 2025-10-20T19:06Z
TLE epoch observation values (Epoch: 2025-10-20T19:06:31.474Z)
Latitude
-0.00003°
Longitude
117.88916°
Altitude
575.272 km
Speed
7.574 km/s
True Right ascension
04h 56m 03s
True Declination
0° 00' 00"
Sunlit
Object was in full shadow at epoch
Visualization orbit readout
Latitude
Unknown
Longitude
Unknown
Altitude
Unknown
Speed
Unknown
Apparent Right ascension
Unknown
Apparent Declination
Unknown
Sunlit
N/A
Visualization observer readout
Local Sidereal Time
09:07:23
Azimuth
Unknown
Elevation
Unknown
Doppler factor
Unknown
Orbital elements
Apogee altitude
577.883 km
Perigee altitude
571.774 km
Semi-major axis
6,952.965 km
Eccentricity
0.00044
Inclination
45.6063°
RAAN
74.0137°
Arg. of periapsis
232.4016°
True anomaly
127.68645°
Mean anomaly
127.6466°
Eccentric anomaly
127.66652°
Mean motion
3.74359 °/min
Orbital period
96.16 mins
BSTAR
0.00043588
Loading maneuver chart data...
Computing Atmospheric mass density...
Loading historical data...
Loading historical data...
Loading historical data...
Loading historical data...
Loading historical data...
Loading historical data...
Loading historical data...

Documentation

Showing up to 5 results
|